Content
SEND FEEDBACK

Daily
Averages
Monthly
Summary
United States of America

PLACERVILLE, CALIFORNIA


Home > North America > United States > California
Elevation: 2590 feet     Latitude: 38 43N     Longitude: 120 45W

WEATHER
 
SELECT A DAY
Number of Records: 93,564;   Date Range: 7/10/09 - 7/24/14
 
SHARE

PRINT THIS DATA

[ ← Previous Day ]
WEATHER ALMANAC - MARCH 25, 2013
[ Next Day → ]
[ °C ]   °F
Weather ElementAverageHighLow
Temperature54.9 °F64.4 °F (11:55 am)46.4 °F (4:55 am)
Dewpoint38.3 °F44.6 °F (3:15 pm)30.2 °F (6:55 am)
Humidity54.9 %87 % (11:15 pm)34 % (11:55 am)
Barometer29.99 in30.03 in (9:55 am)29.95 in (5:15 pm)
Wind Speed6.5 mph10.4 mph (12:35 pm)
Wind Gust16.1 mph (12:35 pm)
Weather ElementAverage
Visibility10 mi
Wind DirectionSSE (156.8 °)

Weather ElementTotal
Precipitation---
Heating Degree Days9.6 (Base 65)
Growing Degree Days5.4 (Base 50)
Averaged from 66 records on March 25, 2013
WEATHER CONDITIONS BREAKOUT
WIND DIRECTION BREAKOUT
WEATHER BY HOUR - MARCH 25, 2013
[ °C ]   °F
Local TimeTemperatureDewpointHumidityBarometerVisibilityWind DirectionWind SpeedGust SpeedPrecipitationEventsConditions
12:35 AM51.8 °F35.6 °F54 %30.02 in10.0 miEast (100°)5.8 mphClear
12:55 AM51.8 °F35.6 °F54 %30.02 in10.0 miEast (90°)5.8 mphClear
1:15 AM51.8 °F35.6 °F54 %30.02 in10.0 miEast (100°)6.9 mphPartly Cloudy
1:55 AM50.0 °F35.6 °F58 %30.02 in10.0 miEast (100°)6.9 mphPartly Cloudy
2:15 AM50.0 °F35.6 °F58 %30.02 in10.0 miESE (110°)5.8 mphPartly Cloudy
2:55 AM48.2 °F35.6 °F62 %30.01 in10.0 miEast (90°)6.9 mphPartly Cloudy
3:35 AM48.2 °F35.6 °F62 %30.00 in10.0 miEast (90°)6.9 mphClear
3:55 AM48.2 °F33.8 °F58 %30.00 in10.0 miEast (90°)5.8 mphClear
4:15 AM48.2 °F33.8 °F58 %29.99 in10.0 miEast (90°)6.9 mphPartly Cloudy
4:35 AM48.2 °F33.8 °F58 %30.00 in10.0 miEast (90°)5.8 mphPartly Cloudy
4:55 AM46.4 °F32.0 °F57 %30.00 in10.0 miEast (90°)6.9 mphClear
5:15 AM48.2 °F32.0 °F54 %30.00 in10.0 miEast (100°)6.9 mphClear
5:35 AM46.4 °F32.0 °F57 %30.00 in10.0 miEast (90°)6.9 mphClear
5:55 AM48.2 °F32.0 °F54 %30.00 in10.0 miESE (110°)6.9 mphClear
6:15 AM48.2 °F32.0 °F54 %30.00 in10.0 miEast (90°)6.9 mphPartly Cloudy
6:35 AM46.4 °F32.0 °F57 %30.00 in10.0 miEast (100°)9.2 mphClear
6:55 AM46.4 °F30.2 °F53 %29.99 in10.0 miEast (100°)9.2 mphClear
7:15 AM48.2 °F30.2 °F50 %30.00 in10.0 miEast (100°)8.1 mphClear
7:35 AM48.2 °F32.0 °F54 %30.00 in10.0 miEast (100°)8.1 mphClear
7:55 AM50.0 °F32.0 °F50 %30.00 in10.0 miEast (100°)8.1 mphClear
8:15 AM50.0 °F32.0 °F50 %30.00 in10.0 miSE (130°)6.9 mphClear
8:55 AM55.4 °F33.8 °F44 %30.02 in10.0 miSouth (170°)4.6 mphClear
9:15 AM55.4 °F35.6 °F47 %30.02 in10.0 miSouth (190°)3.5 mphClear
9:35 AM55.4 °F35.6 °F47 %30.02 in10.0 miSouth (190°)5.8 mphClear
9:55 AM57.2 °F35.6 °F44 %30.03 in10.0 miSSW (200°)4.6 mphClear
10:15 AM59.0 °F39.2 °F48 %30.03 in10.0 miSouth (170°)5.8 mphClear
10:35 AM59.0 °F37.4 °F45 %30.03 in10.0 miSW (220°)3.5 mphClear
10:55 AM59.0 °F37.4 °F45 %30.03 in10.0 miSSW (200°)5.8 mphClear
11:15 AM62.6 °F37.4 °F39 %30.02 in10.0 miSouth (180°)8.1 mphClear
11:35 AM62.6 °F35.6 °F37 %30.02 in10.0 miSouth (180°)6.9 mphClear
11:55 AM64.4 °F35.6 °F34 %30.02 in10.0 miSouth (190°)6.9 mphClear
12:15 PM64.4 °F35.6 °F34 %30.01 in10.0 miSSW (210°)9.2 mphClear
12:35 PM64.4 °F37.4 °F37 %30.01 in10.0 miSouth (190°)10.4 mph16.1 mphClear
12:55 PM64.4 °F37.4 °F37 %30.01 in10.0 miSSW (210°)8.1 mphClear
1:15 PM64.4 °F39.2 °F40 %30.00 in10.0 miSouth (180°)8.1 mphClear
1:35 PM64.4 °F39.2 °F40 %30.00 in10.0 miSW (220°)10.4 mphClear
1:55 PM64.4 °F41.0 °F42 %30.00 in10.0 miWSW (240°)6.9 mphClear
2:15 PM64.4 °F42.8 °F45 %29.99 in10.0 miSSW (210°)10.4 mphClear
2:35 PM62.6 °F42.8 °F48 %29.99 in10.0 miSW (230°)10.4 mphClear
2:55 PM62.6 °F42.8 °F48 %29.99 in10.0 miSSW (210°)6.9 mphClear
3:15 PM62.6 °F44.6 °F52 %29.98 in10.0 miWSW (240°)6.9 mphClear
3:35 PM62.6 °F42.8 °F48 %29.98 in10.0 miSSW (200°)8.1 mphClear
3:55 PM60.8 °F42.8 °F52 %29.97 in10.0 miSSW (210°)6.9 mphClear
4:15 PM62.6 °F44.6 °F52 %29.97 in10.0 miSW (230°)8.1 mphClear
4:55 PM62.6 °F42.8 °F48 %29.96 in10.0 miWSW (240°)5.8 mphClear
5:15 PM59.0 °F42.8 °F55 %29.95 in10.0 miSouth (190°)5.8 mphClear
5:35 PM59.0 °F42.8 °F55 %29.95 in10.0 miSSW (200°)4.6 mphClear
5:55 PM59.0 °F42.8 °F55 %29.95 in10.0 miSouth (190°)6.9 mphClear
6:15 PM57.2 °F41.0 °F55 %29.95 in10.0 miSouth (180°)4.6 mphClear
6:35 PM57.2 °F42.8 °F59 %29.95 in10.0 miSSW (200°)5.8 mphClear
6:55 PM57.2 °F41.0 °F55 %29.95 in10.0 miSSW (210°)4.6 mphPartly Cloudy
7:15 PM55.4 °F41.0 °F58 %29.95 in10.0 miSW (220°)3.5 mphScattered Clouds
7:35 PM55.4 °F41.0 °F58 %29.95 in10.0 miWNW (290°)3.5 mphMostly Cloudy
7:55 PM53.6 °F42.8 °F67 %29.95 in10.0 miCalmScattered Clouds
8:15 PM53.6 °F42.8 °F67 %29.95 in10.0 miSSE (150°)4.6 mphScattered Clouds
8:35 PM53.6 °F42.8 °F67 %29.95 in10.0 miSE (140°)3.5 mphPartly Cloudy
8:55 PM53.6 °F42.8 °F67 %29.96 in10.0 miSouth (180°)5.8 mphPartly Cloudy
9:15 PM51.8 °F42.8 °F71 %29.97 in10.0 miSSW (200°)3.5 mphPartly Cloudy
9:35 PM50.0 °F42.8 °F76 %29.99 in10.0 miWest (280°)4.6 mphScattered Clouds
9:55 PM48.2 °F42.8 °F82 %29.99 in10.0 miWest (270°)3.5 mphScattered Clouds
10:15 PM48.2 °F41.0 °F76 %30.00 in10.0 miNNE (30°)4.6 mphMostly Cloudy
10:35 PM48.2 °F42.8 °F82 %30.00 in10.0 miENE (70°)4.6 mphMostly Cloudy
10:55 PM48.2 °F42.8 °F82 %29.98 in10.0 miESE (110°)10.4 mphOvercast
11:15 PM48.2 °F44.6 °F87 %29.97 in10.0 miEast (100°)8.1 mphOvercast
11:35 PM50.0 °F41.0 °F71 %29.97 in10.0 miEast (90°)8.1 mphOvercast
11:55 PM53.6 °F41.0 °F62 %29.97 in10.0 miEast (80°)6.9 mphOvercast
Hourly data recorded from KPVF, located miles away from Placerville, California







STORIES FROM OUR PARTNERS